Overview Statistics Trail Chart Weather Telemetry Raw packets
 

This is the latest recevied weather packets stored in our database for station/object NI4CE-11. If no packets are shown the sender has not sent any weather packets the latest 10 day(s).

<< 145 146 147 148 149 150 151 >>
Time Temp. Humidity Pressure Rain* Wind** Luminosity Snow
1787781219 31.11° C 100% 1014.9 hPa 0 mm - - -
1787780965 31.11° C 100% 1014.9 hPa 0 mm - - -
1787780711 31.11° C 100% 1015.1 hPa 0 mm - - -
1787780665 31.11° C 100% 1014.9 hPa 0 mm - - -
1787780365 31.11° C 100% 1015.1 hPa 0 mm - - -
1787780065 31.67° C 100% 1015 hPa 0 mm - - -
1787780058 31.67° C 100% 1015.1 hPa 0 mm - - -
1787779765 31.67° C 100% 1015.1 hPa 0 mm - - -
1787779464 31.67° C 100% 1015 hPa 0 mm - - -
1787779168 32.22° C 100% 1015 hPa 0 mm - - -
1787778865 32.22° C 100% 1015 hPa 0 mm - - -
1787778565 32.22° C 100% 1015 hPa 0 mm - - -
1787778265 32.78° C 100% 1015.1 hPa 0 mm - - -
1787777965 31.11° C 100% 1015.2 hPa 0 mm - - -
1787777667 30.56° C 100% 1015.2 hPa 0 mm - - -
1787777517 31.11° C 100% 1015.1 hPa 0 mm - - -
1787777365 31.11° C 100% 1015.1 hPa 0 mm - - -
1787777200 31.67° C 100% 1015.1 hPa 0 mm - - -
1787777065 31.67° C 100% 1015.1 hPa 0 mm - - -
1787776765 31.11° C 100% 1015.2 hPa 0 mm - - -
1787776544 31.11° C 100% 1015.3 hPa 0 mm - - -
1787776465 31.11° C 100% 1015.3 hPa 0 mm - - -
1787776302 32.22° C 100% 1015.2 hPa 0 mm - - -
1787776165 32.22° C 100% 1015.2 hPa 0 mm - - -
1787776033 31.67° C 100% 1015.1 hPa 0 mm - - -

* Rain latest hour (hover to see other rain measurements)
** Current wind speed in m/s (hover to see current wind gust speed)